CZ-2D DEB, 43403

Orbit data source: Space-Track

CZ-2D DEB, 43403 is space debris in SSO originally from a launch on Sat, 29 Sep 2012 UTC launched from the Jiuquan Satellite Launch Center, China (JSC). Debris objects in space refer to the collection of defunct objects orbiting the Earth. Examples of debris include non-operational satellites, rocket bodies, and fragments generated from explosions, collisions, or faulty payload assembly.

Loading next visibility...
Identifier
43403, 2012-052C
Orbit
SSO
Country
Flag of CNCN / PRC
Related business
Manufacturer
SAST
Mission
Spacecraft
Bus & Motor
Unknown
Mass
Unknown
Launch date (UTC)
2012-09-29 (14 years ago)
Launch vehicle
Unknown
Launch site
Jiuquan Satellite Launch Center, China (JSC)
Object type
Payload
Rocket body
Debris
Shape & HBR
Unknown shape, 0.1 m
Radar Cross Section
Small (<0.1 m²)

Expand to show TLE details & history
Last TLE update: 19 hours ago

TLE from 19 hours ago
0 CZ-2D DEB
1 43403U 12052C   26127.08475733  .00001780  00000-0  44335-3 0  9997
2 43403  98.0195 220.5217 0190620  63.1154 298.9379 14.42430259650377
Epoch: 2026-05-07T02:02Z
TLE epoch observation values (Epoch: 2026-05-07T02:02:03.033Z)
Latitude
-0.00002°
Longitude
-34.9269°
Altitude
689.696 km
Speed
7.545 km/s
True Right ascension
14h 42m 05s
True Declination
0° 00' 00"
Sunlit
Object was in full shadow at epoch
Visualization orbit readout
Latitude
Unknown
Longitude
Unknown
Altitude
Unknown
Speed
Unknown
Apparent Right ascension
Unknown
Apparent Declination
Unknown
Sunlit
N/A
Visualization observer readout
Local Sidereal Time
05:33:54
Azimuth
Unknown
Elevation
Unknown
Doppler factor
Unknown
Orbital elements
Apogee altitude
883.405 km
Perigee altitude
611.745 km
Semi-major axis
7,125.712 km
Eccentricity
0.01906
Inclination
98.0195°
RAAN
220.5217°
Arg. of periapsis
63.1154°
True anomaly
297.00436°
Mean anomaly
298.9379°
Eccentric anomaly
297.97333°
Mean motion
3.60828 °/min
Orbital period
99.77 mins
BSTAR
0.00044335
Loading maneuver chart data...
Computing Atmospheric mass density...
Loading historical data...
Loading historical data...
Loading historical data...
Loading historical data...
Loading historical data...
Loading historical data...
Loading historical data...
Other satellites on launch #52 in the year 2012 (2012-09-29 UTC)

Documentation

Showing up to 5 results
|